Siemreap, Cambodia

2:22 PM ICT on September 29, 2016 (GMT +0700)
Siem Reap

Weather History for VDSR - March, 2013

Change the Weather History Date:

Sunday, March 17, 2013

  Actual Average Record
Temperature  
Mean Temperature 87 °F -  
Max Temperature 96 °F - - ()
Min Temperature 78 °F - - ()
Cooling Degree Days 22    
Growing Degree Days 37 (Base 50)    
Moisture  
Dew Point 72 °F    
Average Humidity 59    
Maximum Humidity 89    
Minimum Humidity 39    
Precipitation  
Precipitation 0.00 in - - ()
Sea Level Pressure  
Sea Level Pressure 29.80 in    
Wind  
Wind Speed 4 mph ()    
Max Wind Speed 8 mph    
Max Gust Speed -    
Visibility 5.7 miles    
Events      
T = Trace of Precipitation, MM = Missing Value Source: Averaged Metar Reports

Daily Weather History Graph

Daily Weather History Graph

Search for Another Location

Airport or City:

Trip Planner

Search our weather history database for the weather conditions in past years. The results will help you decide how hot, cold, wet, or windy it might be!

Date:

Astronomy

Mar. 17, 2013 Rise Set
Actual Time 6:10 AM ICT 6:15 PM ICT
Civil Twilight 5:49 AM ICT 6:36 PM ICT
Nautical Twilight 5:25 AM ICT 7:01 PM ICT
Astronomical Twilight 5:00 AM ICT 7:25 PM ICT
Moon 9:51 AM ICT (3/17) 10:54 PM ICT (3/17)
Length of Visible Light 12h 46m
Length of Day
12h 04m
Waxing Crescent, 27% of the Moon is Illuminated
Mar 17
Waxing Crescent
Mar 20
First Quarter
Mar 27
Full
Apr 3
Last Quarter
Apr 10
New

Hourly Weather History & Observations

Time (ICT) Temp. Heat Index Dew Point Humidity Pressure Visibility Wind Dir Wind Speed Gust Speed Precip Events Conditions
12:00 AM 80.6 °F 85.4 °F 73.4 °F 79% 29.89 in 5.0 mi SW 4.6 mph - N/A   Unknown
7:00 AM 78.8 °F - 75.2 °F 89% 29.89 in 3.1 mi ESE 2.3 mph - N/A   Mist
7:30 AM 78.8 °F - 75.2 °F 89% 29.89 in 3.1 mi Variable 2.3 mph - N/A   Mist
8:00 AM 80.6 °F 86.2 °F 75.2 °F 84% 29.89 in 5.0 mi Calm Calm - N/A   Unknown
8:30 AM 84.2 °F 90.9 °F 73.4 °F 70% 29.89 in 5.0 mi Variable 2.3 mph - N/A   Unknown
9:00 AM 86.0 °F 93.4 °F 73.4 °F 66% 29.92 in 5.6 mi West 4.6 mph - N/A   Partly Cloudy
9:30 AM 86.0 °F 93.4 °F 73.4 °F 66% 29.92 in 5.6 mi WSW 4.6 mph - N/A   Partly Cloudy
10:00 AM 87.8 °F 95.6 °F 73.4 °F 62% 29.92 in 6.2 mi Variable 3.5 mph - N/A   Partly Cloudy
10:30 AM 89.6 °F 98.2 °F 73.4 °F 59% 29.89 in 6.2 mi Variable 2.3 mph - N/A   Scattered Clouds
11:00 AM 91.4 °F 100.1 °F 73.4 °F 55% 29.89 in 6.2 mi Variable 4.6 mph - N/A   Scattered Clouds
11:30 AM 91.4 °F 98.4 °F 71.6 °F 52% 29.86 in 6.2 mi West 5.8 mph - N/A   Scattered Clouds
12:00 PM 91.4 °F 96.8 °F 69.8 °F 49% 29.86 in 6.2 mi West 4.6 mph - N/A   Scattered Clouds
12:30 PM 93.2 °F 100.5 °F 71.6 °F 49% 29.83 in 6.2 mi Variable 5.8 mph - N/A   Scattered Clouds
1:00 PM 95.0 °F 103.2 °F 71.6 °F 47% 29.80 in 6.2 mi Variable 4.6 mph - N/A   Scattered Clouds
1:30 PM 95.0 °F 103.2 °F 71.6 °F 47% 29.80 in 6.2 mi Variable 3.5 mph - N/A   Scattered Clouds
2:00 PM 95.0 °F 101.3 °F 69.8 °F 44% 29.77 in 6.2 mi Variable 3.5 mph - N/A   Scattered Clouds
2:30 PM 96.8 °F 103.1 °F 69.8 °F 41% 29.74 in 6.2 mi NW 4.6 mph - N/A   Scattered Clouds
3:00 PM 96.8 °F 101.8 °F 68.0 °F 39% 29.74 in 6.2 mi South 4.6 mph - N/A   Scattered Clouds
3:30 PM 96.8 °F 101.8 °F 68.0 °F 39% 29.74 in 6.2 mi West 5.8 mph - N/A   Scattered Clouds
4:00 PM 96.8 °F 101.8 °F 68.0 °F 39% 29.71 in 6.2 mi SW 5.8 mph - N/A   Scattered Clouds
4:30 PM 95.0 °F 99.5 °F 68.0 °F 41% 29.71 in 6.2 mi Variable 3.5 mph - N/A   Scattered Clouds
5:00 PM 95.0 °F 99.5 °F 68.0 °F 41% 29.71 in 6.2 mi SSW 4.6 mph - N/A   Scattered Clouds
5:30 PM 95.0 °F 101.3 °F 69.8 °F 44% 29.71 in 6.2 mi South 6.9 mph - N/A   Scattered Clouds
6:00 PM 91.4 °F 98.4 °F 71.6 °F 52% 29.74 in 6.2 mi South 6.9 mph - N/A   Scattered Clouds
6:30 PM 89.6 °F 94.7 °F 69.8 °F 52% 29.74 in 6.2 mi South 4.6 mph - N/A   Scattered Clouds
7:00 PM 89.6 °F 96.2 °F 71.6 °F 55% 29.74 in 6.2 mi SSE 4.6 mph - N/A   Scattered Clouds
7:30 PM 89.6 °F 96.2 °F 71.6 °F 55% 29.74 in 5.6 mi SSE 4.6 mph - N/A   Scattered Clouds
8:00 PM 87.8 °F 95.6 °F 73.4 °F 62% 29.74 in 5.6 mi SSE 4.6 mph - N/A   Partly Cloudy
8:30 PM 86.0 °F 93.4 °F 73.4 °F 66% 29.74 in 5.6 mi SSE 3.5 mph - N/A   Partly Cloudy
9:00 PM 86.0 °F 95.1 °F 75.2 °F 70% 29.77 in 5.6 mi SW 6.9 mph - N/A   Partly Cloudy
9:30 PM 84.2 °F 92.3 °F 75.2 °F 74% 29.80 in 5.6 mi WSW 8.1 mph - N/A   Partly Cloudy
10:00 PM 84.2 °F 90.9 °F 73.4 °F 70% 29.80 in 5.6 mi WSW 5.8 mph - N/A   Partly Cloudy
10:30 PM 82.4 °F 88.2 °F 73.4 °F 74% 29.80 in 5.6 mi WSW 5.8 mph - N/A   Partly Cloudy
11:00 PM 82.4 °F 88.2 °F 73.4 °F 74% 29.77 in 5.6 mi Variable 2.3 mph - N/A   Partly Cloudy
11:30 PM 82.4 °F 88.2 °F 73.4 °F 74% 29.77 in 5.6 mi Variable 2.3 mph - N/A   Partly Cloudy